Showing default

LEMUR 2 HUBBLE-5, 64840

Orbit data source: Space-Track

LEMUR 2 HUBBLE-5, 64840 is an American payload satellite in SSO that was launched on Mon, 23 Jun 2025 UTC via an FALCON 9 launch vehicle from the Air Force Western Test Range (AFWTR). Payload-class satellites include a variety of spacecraft equipped with specific instruments for various scientific and technological missions. These include communications satellites like Starlink; space stations such as the ISS; scientific satellites like the Hubble; Earth observation satellites from companies like Planet Labs, Umbra, and HawkEye 360; GPS; miniature CubeSats for education and research; and military/defense satellites.

Loading next visibility...
Identifier
64840, 2025-135BT
Orbit
SSO
Country
Flag of USUS
Related business
Manufacturer
Spire/Glasgow
Mission
Operational Commercial Communications
Bus & Motor
CUBESAT 16U, Unknown motor
Mass
22 kg wet, 22 kg dry
Launch date (UTC)
2025-06-23 (1 year ago)
Launch vehicle
FALCON 9
Launch site
Air Force Western Test Range (AFWTR)
Object type
Payload
Rocket body
Debris
Shape & HBR
Box + 4 Pan, 1.4 m
Radar Cross Section
0.326 m², Medium (>0.1 m² and < 1m²)

Expand to show TLE details & history
Last TLE update: 11 hours ago

TLE from 11 hours ago
0 LEMUR 2 HUBBLE-5
1 64840U 25135BT  26178.26979266  .00001974  00000-0  18975-3 0  9993
2 64840  97.7726 292.7043 0004272 315.2730  44.8145 14.94165966 55417
Epoch: 2026-06-27T06:28Z
TLE epoch observation values (Epoch: 2026-06-27T06:28:30.085Z)
Latitude
-0.00005°
Longitude
-79.80741°
Altitude
585.897 km
Speed
7.568 km/s
True Right ascension
19h 30m 49s
True Declination
0° 00' 00"
Sunlit
Object was in full shadow at epoch
Visualization orbit readout
Latitude
Unknown
Longitude
Unknown
Altitude
Unknown
Speed
Unknown
Apparent Right ascension
Unknown
Apparent Declination
Unknown
Sunlit
N/A
Visualization observer readout
Local Sidereal Time
05:12:08
Azimuth
Unknown
Elevation
Unknown
Doppler factor
Unknown
Orbital elements
Apogee altitude
584.952 km
Perigee altitude
579.006 km
Semi-major axis
6,960.116 km
Eccentricity
0.00043
Inclination
97.7726°
RAAN
292.7043°
Arg. of periapsis
315.273°
True anomaly
44.84902°
Mean anomaly
44.8145°
Eccentric anomaly
44.83176°
Mean motion
3.73782 °/min
Orbital period
96.31 mins
BSTAR
0.00018975
Loading maneuver chart data...
Computing Atmospheric mass density...
Loading historical data...
Loading historical data...
Loading historical data...
Loading historical data...
Loading historical data...
Loading historical data...
Loading historical data...

Documentation

Showing up to 5 results
|